sat.trackr.live / text

‹ back to catalog

STARLINK-31095

NORAD 58683 · 2023-211S

PAYLOAD ACTIVE UNKNOWN

§ Identity

Operator
Country
US
Launch date
2023-12-29
Launch site
AFETR
Launch vehicle
Mass (kg)
RCS (m²)

Purposes: comms

External: N2YO · Heavens-Above · Gunter

§ Orbital elements

Epoch: 2026-05-25T00:18:17.352576Z

Period
94.27 min
Inclination
43.0055°
Eccentricity
0.0001451
Mean motion
15.27559758 rev/d
Perigee alt
482.1 km
Apogee alt
484.1 km
Semi-major
6,861.2 km
B*
-4.9499e-5
RAAN
14.5508°
Arg perigee
285.4117°
Mean anomaly
74.6575°
Rev number
13,540

§ Raw data

STARLINK-310951 58683U 23211S   26145.01270084 -.00001623  00000+0 -49499-4 0  99912 58683  43.0055  14.5508 0001451 285.4117  74.6575 15.27559758135402

JSON: /api/v1/satellites/58683 · /tle

For live sub-satellite position, see the globe view (requires WebGL).

§ Visibility from observer

Set your observer location to see the next 7 days of passes ≥ 10°. The values pass through the URL so the page stays shareable.

No JS? Fill the form by hand. The geolocation button needs JavaScript.